TimeMDT,TemperatureF,Dew PointF,Humidity,Sea Level PressureIn,VisibilityMPH,Wind Direction,Wind SpeedMPH,Gust SpeedMPH,PrecipitationIn,Events,Conditions,WindDirDegrees,DateUTC
12:53 AM,75.0,42.1,31,29.69,10.0,Calm,Calm,-,N/A,,Clear,0,2013-06-10 06:53:00
1:53 AM,71.1,45.0,39,29.72,10.0,South,10.4,-,N/A,,Clear,180,2013-06-10 07:53:00
2:53 AM,70.0,43.0,38,29.70,10.0,SW,4.6,-,N/A,,Clear,220,2013-06-10 08:53:00
3:53 AM,70.0,42.1,36,29.68,10.0,SW,4.6,-,N/A,,Clear,230,2013-06-10 09:53:00
4:53 AM,66.0,45.0,47,29.68,10.0,South,5.8,-,N/A,,Clear,180,2013-06-10 10:53:00
5:53 AM,64.0,45.0,50,29.69,10.0,WSW,9.2,-,N/A,,Clear,250,2013-06-10 11:53:00
6:53 AM,61.0,43.0,52,29.71,10.0,WSW,5.8,-,N/A,,Clear,250,2013-06-10 12:53:00
7:53 AM,64.9,41.0,42,29.71,10.0,SW,11.5,-,N/A,,Clear,220,2013-06-10 13:53:00
8:53 AM,66.9,37.9,34,29.73,10.0,WSW,10.4,-,N/A,,Clear,240,2013-06-10 14:53:00
9:53 AM,66.9,37.0,33,29.75,10.0,SSW,6.9,-,N/A,,Clear,200,2013-06-10 15:53:00
10:53 AM,69.1,41.0,36,29.73,10.0,South,5.8,-,N/A,,Clear,180,2013-06-10 16:53:00
11:53 AM,72.0,42.1,34,29.71,10.0,South,5.8,-,N/A,,Clear,170,2013-06-10 17:53:00
12:53 PM,79.0,42.1,27,29.67,10.0,WNW,4.6,-,N/A,,Clear,300,2013-06-10 18:53:00
1:53 PM,80.1,44.1,28,29.65,10.0,West,6.9,-,N/A,,Clear,280,2013-06-10 19:53:00
2:53 PM,82.0,42.1,24,29.62,10.0,West,3.5,-,N/A,,Clear,280,2013-06-10 20:53:00
3:53 PM,86.0,43.0,22,29.58,10.0,NW,3.5,-,N/A,,Clear,320,2013-06-10 21:53:00
4:53 PM,89.1,45.0,22,29.55,10.0,Calm,Calm,-,N/A,,Clear,0,2013-06-10 22:53:00
5:53 PM,89.1,45.0,22,29.52,10.0,Calm,Calm,-,N/A,,Clear,0,2013-06-10 23:53:00
6:53 PM,88.0,46.9,24,29.51,10.0,West,8.1,-,N/A,,Clear,260,2013-06-11 00:53:00
7:53 PM,87.1,46.0,24,29.51,10.0,WSW,10.4,-,N/A,,Clear,250,2013-06-11 01:53:00
8:53 PM,78.1,39.9,25,29.53,10.0,WSW,12.7,-,N/A,,Clear,240,2013-06-11 02:53:00
9:53 PM,73.0,36.0,26,29.57,10.0,WSW,16.1,24.2,N/A,,Clear,250,2013-06-11 03:53:00
10:53 PM,71.1,33.1,25,29.58,10.0,WSW,16.1,26.5,N/A,,Clear,250,2013-06-11 04:53:00
11:53 PM,68.0,34.0,28,29.61,10.0,SW,15.0,-,N/A,,Clear,220,2013-06-11 05:53:00